Wind_Speed
57 54 52 49 47 46 45 45 47 48 48 48 49 50 49 51 52 51 50 50 51 53 52 50 47 45 46 46 46 46 45 46 45 45 47 40 31 31 38 40 38 36 35 32 31 29 27 26 25 25 24 23 22 21 21 21 21 21 20 20 22 22 22 21 18 16 15 14 13 13 13 11 9 8 7 6 4 2 1 2 2 2 1 2 3 3 2 0
60 57 54 51 49 47 47 47 47 46 47 48 48 49 48 48 51 51 48 47 51 54 53 52 49 46 45 43 44 46 46 46 47 48 47 41 34 32 35 39 39 37 37 34 32 29 27 26 26 26 26 25 24 22 22 22 22 22 22 23 23 22 21 19 18 17 15 14 13 13 13 12 11 10 10 8 6 4 2 1 0 1 1 2 1 2 2 1
62 60 57 54 51 49 48 48 46 46 45 46 47 48 48 47 49 52 48 44 49 55 54 53 50 48 46 44 42 43 46 47 49 51 46 40 37 34 32 36 40 39 37 35 32 31 29 27 27 27 27 27 26 24 23 22 22 23 23 24 23 21 19 19 19 18 16 15 14 14 14 13 13 12 12 9 8 7 4 3 3 2 3 3 3 2 2 2
65 62 60 57 54 51 49 48 47 46 45 44 46 46 47 48 48 52 52 43 45 52 54 53 51 49 46 45 43 40 42 46 53 51 43 39 37 35 34 32 37 40 37 36 34 32 31 29 28 29 29 28 27 26 25 24 23 24 24 24 23 20 20 20 20 20 18 17 16 16 15 15 14 14 14 12 11 8 5 7 6 5 5 3 2 2 2 2
68 64 61 59 57 53 49 49 48 47 46 44 44 45 45 48 48 51 54 47 43 48 54 54 52 50 45 44 46 43 38 42 51 50 42 41 38 36 37 33 34 39 38 37 36 34 32 31 29 29 30 30 29 28 27 26 25 25 25 24 23 21 21 21 21 21 20 19 18 17 17 17 16 16 16 15 13 8 7 11 9 7 7 5 4 2 2 2
70 68 64 60 59 55 51 50 50 48 48 45 44 44 44 47 48 49 54 52 45 44 52 56 53 52 46 43 46 45 38 38 45 47 45 43 39 38 38 35 33 36 38 37 35 34 33 31 30 30 31 31 30 29 28 27 26 26 25 24 24 23 22 21 21 22 21 20 19 17 18 18 18 17 17 18 14 9 11 13 12 10 9 7 6 4 3 3
72 70 67 63 61 58 54 52 51 49 49 47 44 44 44 45 48 49 52 55 50 43 49 56 53 53 50 42 39 40 39 38 39 42 46 45 39 39 40 38 36 35 36 36 35 34 33 31 30 31 30 31 31 30 29 27 27 27 26 25 24 23 23 22 22 22 22 21 20 19 19 20 20 19 20 20 15 13 15 16 14 13 11 10 9 7 7 6
72 72 70 66 62 60 57 53 51 50 49 48 45 44 45 45 48 50 50 54 54 45 45 54 54 51 52 46 36 35 39 40 36 35 41 45 42 41 41 42 39 37 35 33 32 31 30 30 30 30 30 30 30 30 29 29 29 29 27 25 25 24 23 23 23 23 23 22 22 22 22 21 22 22 24 22 17 16 18 18 17 15 14 13 11 11 11 9
70 73 72 70 64 61 58 55 52 51 50 50 47 43 44 45 46 50 49 51 54 49 44 50 55 50 50 52 45 40 41 39 38 36 38 41 44 43 42 43 41 38 37 33 31 29 29 29 29 30 29 29 29 30 30 30 30 29 27 26 26 25 24 24 24 23 24 24 23 23 23 24 24 26 27 25 21 20 21 20 19 19 18 16 15 15 14 13
65 72 73 72 67 62 59 56 53 51 50 50 49 45 44 44 45 48 49 49 53 52 46 46 52 52 48 51 53 52 49 41 36 38 40 39 41 46 44 43 43 41 38 36 33 30 29 28 26 26 27 29 30 31 32 31 30 28 27 27 27 26 25 25 24 24 24 24 25 25 25 25 27 30 31 29 26 24 24 23 23 22 22 22 21 20 19 18
60 68 73 74 70 64 59 57 53 51 51 50 51 48 44 43 44 47 48 48 52 52 48 45 48 53 52 49 53 58 57 47 34 32 39 41 39 44 47 45 43 43 41 38 35 32 30 28 26 26 26 28 29 30 32 32 30 28 28 27 27 27 27 26 25 24 24 24 25 26 27 27 29 34 35 30 28 27 27 27 27 26 26 26 26 25 24 22
56 63 70 74 72 66 60 57 53 51 53 51 51 49 43 42 43 46 48 48 51 51 47 46 46 50 53 50 52 57 57 52 40 29 32 39 40 43 46 46 44 42 41 40 37 33 32 29 28 28 26 26 26 26 29 32 31 29 29 28 28 28 28 28 27 26 25 25 26 26 28 32 33 36 34 29 28 28 29 29 29 29 28 27 27 27 27 25
53 59 66 72 73 69 61 57 54 52 54 53 52 49 44 42 42 44 48 50 51 52 48 46 45 45 50 53 54 56 56 54 49 38 30 30 36 41 44 45 45 43 41 39 37 34 33 31 29 29 28 27 26 25 25 28 29 30 29 29 29 30 30 30 28 27 26 26 27 26 30 35 35 34 32 29 29 29 30 30 29 29 28 28 28 28 28 27
51 55 63 69 72 71 63 56 54 53 53 54 52 49 45 44 45 43 47 51 51 52 50 45 43 43 46 53 56 56 55 53 51 48 42 33 28 33 41 44 43 43 42 41 40 37 34 31 30 30 30 29 28 27 25 23 25 27 29 31 31 30 30 31 29 28 27 26 27 26 31 36 33 30 31 30 29 30 31 30 29 29 29 29 28 28 28 27
50 53 60 66 70 71 65 56 53 53 53 54 52 50 46 45 46 44 46 51 52 52 51 46 43 40 41 49 55 55 53 50 48 48 51 46 32 27 34 40 41 41 42 43 41 39 36 32 31 32 33 32 29 28 27 25 24 26 28 30 33 32 29 30 28 28 28 26 28 27 28 34 32 29 29 29 30 30 31 31 30 31 30 30 30 29 28 27
50 52 57 64 69 71 67 59 53 53 54 53 52 50 46 46 47 44 44 49 51 53 53 50 46 41 41 46 50 51 51 48 46 45 48 51 44 36 34 37 41 41 40 43 42 40 39 36 34 33 34 34 32 30 28 27 28 28 28 27 28 30 28 28 28 28 27 26 29 29 29 33 33 30 28 27 27 28 30 31 30 31 31 30 30 30 30 28
49 51 55 61 67 69 67 62 54 52 54 52 51 50 47 47 47 44 42 45 49 53 54 51 47 44 42 44 45 47 48 45 43 43 46 48 47 44 42 36 38 39 37 40 41 41 40 38 37 36 36 34 33 32 28 28 32 32 30 27 23 22 23 24 26 26 26 27 30 32 34 35 34 32 30 27 26 26 27 27 27 28 29 29 30 30 30 29
49 50 54 58 66 69 67 64 55 51 53 51 50 51 49 47 46 44 43 44 47 51 54 51 47 43 40 43 46 47 46 41 39 39 41 45 45 45 46 40 34 32 31 36 39 40 39 39 38 36 36 36 35 36 34 32 34 34 31 27 23 22 23 23 24 23 24 27 29 32 35 36 35 34 32 30 29 29 29 27 26 26 28 29 29 30 29 29
48 49 53 56 64 68 67 64 57 50 52 52 51 52 51 48 46 46 45 45 48 53 56 55 54 46 37 38 40 44 44 39 37 37 37 41 44 45 46 43 38 28 23 28 33 37 40 39 38 39 41 42 42 42 39 34 31 30 30 29 28 27 28 28 26 24 24 26 29 31 33 35 36 35 33 31 31 32 32 30 29 27 28 29 28 29 29 29
49 50 52 55 63 68 66 64 58 52 51 55 55 54 53 52 50 49 48 47 49 56 59 56 57 51 40 36 33 35 39 37 38 38 37 39 41 43 45 45 45 39 29 23 23 29 38 40 42 46 47 46 45 41 38 35 30 26 27 30 30 29 29 28 25 24 24 27 30 30 31 33 35 36 33 31 32 33 34 33 31 30 30 30 29 29 29 29
49 50 52 55 61 66 67 65 59 53 53 56 60 58 57 57 56 54 52 49 45 52 58 53 54 54 46 39 36 33 34 34 36 37 36 38 39 41 44 45 47 48 47 38 27 24 31 39 44 47 46 43 42 38 36 35 31 26 23 23 24 25 26 25 23 23 22 25 29 28 30 33 34 36 34 32 34 34 34 34 33 32 32 32 32 30 29 29
49 51 52 54 60 64 67 65 58 54 54 57 61 60 58 56 54 53 53 54 48 50 59 54 49 53 48 41 38 36 34 33 33 35 36 37 38 39 41 45 48 48 49 48 41 30 26 35 43 43 42 40 39 37 35 34 33 28 23 21 20 20 19 18 19 19 20 23 26 26 30 33 33 37 38 36 37 34 32 34 34 33 34 34 32 31 30 29
49 51 52 55 60 62 66 65 59 56 55 58 61 59 58 54 50 49 50 53 51 51 60 58 49 48 49 47 43 39 39 35 32 34 35 35 35 36 37 41 45 45 44 46 46 39 30 31 38 40 40 38 36 36 35 33 34 33 30 27 25 23 19 16 15 16 17 21 24 25 30 34 34 38 42 40 38 37 33 32 33 34 36 34 32 31 30 30
50 52 52 56 59 60 64 62 59 58 56 57 60 58 57 54 50 49 48 49 50 51 57 59 54 48 47 50 47 41 41 38 34 34 33 34 35 34 35 36 39 41 42 43 43 42 40 32 27 29 32 35 35 35 36 36 35 35 34 33 30 29 27 23 19 18 19 21 24 24 29 38 39 40 45 42 38 39 36 34 34 33 34 34 34 33 30 29
51 52 54 55 58 62 62 58 58 60 57 57 60 61 57 54 50 48 47 46 45 47 51 55 56 51 46 46 45 40 38 36 37 37 33 33 35 35 36 34 34 38 40 39 35 37 44 39 29 22 19 24 29 31 35 38 37 35 35 36 34 30 28 26 23 20 20 22 24 21 18 28 38 39 43 42 39 38 36 36 36 34 33 33 34 34 32 29
52 53 54 54 58 63 60 57 57 57 58 61 62 61 56 53 49 45 45 40 36 43 48 51 54 52 48 45 43 39 34 33 35 36 35 33 33 34 35 33 32 33 33 31 27 29 38 42 40 34 24 21 22 24 30 35 35 33 34 34 33 32 29 26 23 19 16 18 21 18 12 21 36 43 44 42 40 40 36 35 35 33 32 32 31 32 33 31
53 54 55 54 58 62 58 58 58 56 59 63 63 59 55 54 49 44 39 23 20 38 46 48 50 51 50 44 43 41 34 33 34 33 35 34 32 32 32 32 30 29 27 25 24 30 36 36 39 43 41 35 31 26 25 31 34 33 35 33 30 31 30 27 25 21 20 21 22 22 20 23 37 47 47 45 44 44 40 37 35 31 29 29 29 30 31 32
53 55 56 55 57 60 57 57 58 57 60 63 62 59 56 54 48 45 33 8 10 33 42 46 47 46 49 43 39 41 35 34 37 35 34 32 31 31 30 30 28 27 27 26 26 29 30 30 32 37 39 41 42 35 25 25 31 33 32 29 28 28 28 28 26 23 24 24 24 29 26 19 29 43 44 43 47 46 43 39 36 33 29 27 27 28 29 30
53 54 56 56 55 56 55 54 54 56 60 64 64 60 58 54 48 43 26 6 15 31 36 43 45 43 48 43 36 39 36 32 36 38 35 33 32 31 30 29 27 26 25 23 25 26 22 21 21 23 30 38 43 39 31 26 27 31 30 25 24 24 24 24 22 22 22 19 23 34 31 17 24 41 40 39 46 47 42 38 33 31 29 27 26 26 27 27
52 54 55 55 54 54 56 53 53 57 62 66 64 62 59 53 48 33 12 11 23 28 33 42 45 45 48 45 38 37 34 30 34 37 36 35 34 31 29 27 26 26 24 21 23 26 22 15 13 17 24 29 29 28 30 29 25 26 27 25 22 20 22 21 19 22 15 13 27 38 35 21 17 30 34 34 42 43 40 37 32 26 24 24 25 25 26 26
52 55 55 55 54 56 57 55 57 59 62 66 65 62 56 51 46 23 6 21 28 25 35 43 43 44 46 47 43 38 33 28 31 36 37 36 34 34 31 28 29 27 26 28 28 27 23 17 18 21 22 20 19 20 25 28 28 25 21 22 20 15 17 16 17 20 9 8 28 35 30 24 18 26 32 32 38 41 39 38 34 27 23 23 23 21 22 24
53 55 54 53 54 57 56 56 61 61 61 66 66 63 56 43 31 16 14 27 26 26 41 45 44 44 43 46 45 43 38 30 30 35 37 36 34 36 34 32 35 30 27 34 33 27 24 22 21 20 19 19 20 22 22 24 29 30 25 22 15 9 10 10 8 11 7 11 29 30 20 19 27 41 45 42 44 44 42 41 38 34 29 25 23 20 21 22
54 54 50 51 54 56 54 56 62 62 62 66 64 62 54 30 17 21 29 30 23 30 44 46 48 47 44 46 46 47 43 34 32 32 33 36 33 34 33 31 35 30 25 31 33 26 20 19 23 23 22 23 24 26 28 29 31 33 34 29 17 6 3 4 3 2 5 15 28 29 17 11 23 44 47 44 45 41 40 40 38 36 31 25 23 22 24 24
55 51 47 49 55 56 55 57 62 63 64 65 62 59 44 20 18 32 38 32 26 33 44 47 51 47 43 47 47 48 46 39 37 33 30 35 34 34 33 31 33 30 27 28 30 29 20 15 24 29 27 27 28 29 29 31 32 33 36 34 26 17 6 2 3 4 5 12 18 17 11 7 16 35 39 37 39 37 35 35 32 32 29 26 25 25 26 25
52 48 47 50 55 57 56 57 61 63 63 64 62 55 34 20 30 41 41 36 33 36 43 46 51 46 40 43 43 45 46 42 41 36 31 34 36 37 36 35 36 33 31 26 24 30 27 19 24 29 30 29 27 29 29 28 28 29 32 32 33 34 23 8 4 4 4 5 7 9 10 13 26 40 39 36 40 40 36 34 30 27 26 25 24 25 25 26
48 48 52 56 57 57 58 59 61 61 62 63 56 45 35 32 43 50 46 44 41 44 47 45 48 46 40 38 38 40 42 41 42 39 33 33 35 38 39 38 38 37 35 30 24 26 26 25 28 27 28 30 26 26 30 28 25 25 30 35 36 38 33 20 9 7 5 4 7 10 13 22 33 41 39 36 39 40 34 31 27 23 25 26 23 22 22 22
48 51 57 61 56 53 56 58 61 59 59 61 50 41 40 38 44 49 47 45 43 46 51 47 46 48 43 38 37 40 42 39 41 40 36 35 34 37 41 39 39 39 38 35 28 25 25 25 29 29 27 30 28 24 27 30 28 25 29 35 34 29 30 28 12 3 4 4 7 13 20 25 25 30 37 32 29 32 30 28 28 26 25 24 22 19 18 17
52 53 58 60 51 48 54 57 61 61 57 56 47 41 41 34 36 45 46 46 43 44 50 47 43 46 47 45 42 42 43 39 39 40 38 35 32 35 42 40 38 40 39 38 31 25 25 20 20 27 28 27 27 26 28 33 35 32 29 30 27 18 19 25 15 3 4 3 3 11 18 23 28 36 41 32 25 30 33 33 33 29 21 18 17 14 12 14
56 59 58 55 47 48 56 57 59 59 55 53 47 41 39 31 33 44 45 45 43 43 47 43 40 44 46 48 48 45 45 43 43 43 38 36 33 34 41 40 38 39 39 40 35 27 25 19 12 18 25 25 26 29 32 34 36 36 33 29 28 22 16 21 23 13 6 3 4 8 8 15 35 47 47 43 38 38 39 40 37 27 17 16 16 13 12 17
56 60 55 50 48 52 58 57 56 57 56 56 49 43 43 34 33 41 42 43 43 42 45 42 42 47 46 46 46 44 45 43 44 45 39 37 36 33 36 40 38 38 38 39 39 31 26 21 14 13 19 23 26 30 34 36 37 38 38 34 34 32 21 17 23 24 15 5 2 4 4 20 43 49 48 50 49 45 45 45 42 30 20 20 20 19 20 25
54 55 49 48 52 56 57 55 56 58 56 54 47 42 43 37 35 40 40 41 42 40 43 43 42 46 47 44 43 44 45 41 41 44 39 38 39 32 33 39 39 38 37 38 41 38 30 25 21 16 19 25 28 30 32 35 37 38 40 42 41 38 28 14 11 22 26 18 12 6 7 28 48 47 46 50 47 46 47 46 45 39 30 28 28 27 30 32
54 50 48 53 56 57 59 57 58 59 54 49 45 42 43 38 36 41 41 39 39 36 38 39 37 40 43 43 42 43 44 41 41 44 42 42 42 38 34 36 38 38 37 36 38 40 35 28 23 18 19 22 24 26 29 31 36 38 39 42 41 37 34 22 12 18 25 25 24 13 8 30 48 43 42 45 43 44 45 43 44 43 39 36 33 33 35 36
52 48 48 53 55 58 61 57 57 56 48 45 45 41 41 38 36 41 42 38 37 35 34 35 34 35 38 39 39 41 42 41 41 44 44 43 44 41 35 34 36 37 37 35 35 38 36 31 27 24 22 23 24 26 27 26 29 34 37 41 40 38 40 38 32 29 23 22 24 11 6 31 49 42 39 40 39 40 41 40 41 40 41 38 36 37 36 36
52 49 49 51 53 59 61 58 57 55 48 47 46 41 40 39 36 40 43 40 37 34 33 32 31 32 33 34 35 38 38 36 37 41 42 42 43 42 39 36 34 35 37 38 39 40 35 32 31 22 13 14 18 20 23 25 27 30 34 37 38 40 43 42 42 36 22 22 28 15 9 32 49 45 41 40 39 40 41 43 42 40 39 37 35 35 35 36
52 50 52 52 54 58 58 59 63 62 55 52 49 45 44 41 37 38 40 41 39 34 31 30 28 27 28 28 28 31 33 31 31 36 38 39 40 39 40 39 36 34 34 33 36 38 34 33 34 24 10 8 12 15 25 35 35 34 36 36 36 40 42 40 40 34 21 22 30 24 21 39 51 49 47 46 44 45 46 47 47 44 42 40 37 36 37 41
53 53 54 54 55 58 57 56 61 61 57 53 48 47 47 44 41 39 37 38 38 35 31 28 27 26 24 25 25 25 28 29 27 28 30 32 34 34 35 36 36 35 32 27 26 29 31 33 37 35 30 29 30 32 36 37 34 34 38 40 39 39 41 41 38 35 31 28 31 33 34 41 50 53 53 52 50 48 49 49 49 49 47 46 44 42 43 44
54 55 58 57 55 55 54 53 56 56 52 51 47 46 47 45 43 41 38 37 38 37 34 29 29 30 28 29 29 25 26 27 27 28 27 26 28 28 28 30 31 33 31 27 24 25 28 32 35 38 41 42 43 43 40 33 28 30 36 40 42 40 40 43 42 42 40 30 28 36 38 39 49 57 56 54 51 51 53 53 52 52 52 50 48 47 46 44
53 56 61 62 57 55 55 54 56 54 50 48 43 42 46 45 42 43 43 41 39 39 38 34 34 36 35 35 35 30 26 24 25 28 27 25 25 24 25 26 26 29 29 27 27 28 29 32 33 36 38 40 41 41 41 38 33 31 31 33 38 39 40 42 45 46 44 35 32 37 37 38 49 57 56 54 52 53 56 57 56 55 53 51 49 48 47 44
50 56 62 62 56 57 60 57 56 54 50 47 42 40 45 46 43 43 44 43 41 40 41 41 40 39 37 36 36 34 32 32 33 33 31 28 26 24 24 23 22 25 27 28 30 31 31 32 33 33 35 38 38 38 40 41 40 39 38 36 35 36 37 39 42 44 45 45 46 47 44 47 52 56 59 59 57 57 59 60 61 58 55 53 52 50 48 45
46 54 63 61 52 52 56 55 54 53 50 48 46 44 46 47 45 45 44 44 45 43 44 45 43 40 38 36 36 37 39 41 41 38 33 29 28 27 25 23 21 21 21 24 27 29 30 32 32 31 32 35 38 39 39 40 42 44 45 43 40 37 35 38 41 43 45 48 51 51 53 57 57 56 61 63 61 62 61 61 63 62 58 57 54 51 49 47
43 51 61 59 49 46 48 50 52 51 48 49 48 46 46 48 48 47 44 44 45 45 46 45 42 39 36 36 37 39 39 39 37 36 34 31 31 31 29 26 24 21 20 22 24 26 28 30 31 29 26 32 39 39 40 41 40 41 43 43 42 42 43 45 47 48 49 50 50 50 54 58 56 54 58 61 63 64 62 62 65 64 61 58 55 52 49 48
42 49 54 51 44 44 45 45 48 48 47 47 47 46 45 46 48 47 43 41 41 41 42 42 41 38 35 37 41 40 36 33 32 32 32 30 30 29 27 27 26 24 24 23 23 26 27 29 33 29 25 33 41 40 41 37 27 29 40 45 46 49 52 53 54 52 51 50 49 49 52 55 54 52 54 57 60 63 65 64 64 65 62 58 54 50 45 43
Wind_Direction
222 221 223 223 222 225 229 232 233 233 233 232 229 228 228 225 220 216 215 217 218 217 217 217 219 220 219 221 223 223 225 228 229 230 230 228 226 226 223 224 227 227 228 227 225 224 224 223 224 224 224 223 220 218 217 216 216 217 218 219 222 223 224 227 231 234 236 233 231 231 230 229 228 222 221 227 236 245 75 71 90 90 52 67 77 80 90 15
221 221 221 222 221 222 225 228 231 231 232 232 231 229 227 225 221 216 215 219 220 218 217 217 218 220 222 222 223 224 225 228 231 230 230 229 228 228 225 223 226 228 228 228 226 225 224 224 226 226 225 225 223 220 219 218 217 218 219 223 225 225 225 227 232 233 233 234 233 233 232 231 230 229 230 227 228 228 214 315 310 150 231 227 151 113 112 140
221 222 221 221 221 221 223 226 229 230 229 231 232 230 227 224 221 216 214 218 220 219 217 216 216 219 223 224 224 226 226 229 231 229 227 229 227 226 225 224 226 228 228 227 227 226 225 225 225 227 227 225 224 222 221 220 219 220 221 226 228 227 226 227 232 234 233 232 232 235 237 237 236 237 240 234 233 231 222 255 263 246 243 230 215 187 154 155
220 221 221 221 221 221 223 224 225 227 227 228 231 231 228 224 221 218 216 217 218 219 218 214 214 216 221 222 223 227 228 230 231 227 226 228 226 224 225 225 225 227 228 227 226 227 226 225 225 225 226 225 223 222 223 222 222 222 223 226 229 227 227 227 233 238 237 236 234 237 241 244 243 244 247 241 237 231 228 249 258 271 273 269 255 212 192 186
220 219 221 222 221 220 221 222 222 223 224 225 229 230 229 225 223 219 216 217 216 218 219 215 212 214 218 220 223 226 225 229 231 226 224 227 223 222 225 224 224 225 227 227 226 227 226 225 225 224 225 225 223 222 222 223 223 225 225 227 229 227 227 228 232 238 241 241 239 239 242 246 247 246 248 245 242 233 235 249 253 264 276 288 299 282 229 226
221 218 219 221 221 220 220 221 220 220 222 223 227 228 227 225 224 221 217 216 215 217 219 215 212 211 215 219 222 225 221 224 230 225 221 224 221 218 222 222 221 224 225 226 226 226 226 225 224 224 225 226 225 224 223 224 225 227 227 228 229 228 228 229 230 236 240 241 239 238 240 242 245 246 246 247 246 240 240 250 255 259 266 275 285 289 271 258
221 218 218 220 221 220 220 221 220 219 219 220 224 227 226 224 223 221 218 216 215 218 219 215 213 211 212 214 217 223 223 223 229 225 220 222 221 216 218 220 220 222 224 225 225 225 226 225 225 224 225 226 227 227 225 226 228 229 229 229 231 229 229 230 231 234 238 240 240 239 239 240 242 244 245 246 245 240 243 250 257 262 267 270 273 277 277 275
221 219 217 219 220 221 220 219 219 218 217 217 221 224 225 223 221 220 220 218 216 218 219 215 214 212 211 210 208 214 219 222 227 226 219 219 220 216 215 218 217 220 222 223 224 225 227 226 225 224 224 227 229 229 228 228 230 230 230 231 232 232 230 231 232 233 237 241 242 242 243 243 243 244 244 244 240 237 242 249 255 262 267 270 271 270 273 276
222 220 218 218 220 221 221 219 217 217 216 216 217 220 224 223 220 219 220 219 216 216 218 216 214 213 213 212 211 213 215 221 229 228 222 219 220 218 215 217 217 217 220 221 221 222 223 224 224 224 226 229 231 231 229 229 231 231 231 233 234 235 233 232 233 234 237 241 244 245 245 246 246 246 246 243 238 238 242 248 254 259 264 269 271 268 270 272
224 222 219 218 219 221 222 220 218 217 215 215 216 217 222 221 218 218 217 218 216 214 217 216 214 214 213 213 216 218 218 221 227 224 220 218 218 219 216 216 217 216 218 220 221 221 221 222 223 224 228 232 232 230 229 229 231 232 233 235 236 237 236 235 235 235 237 240 244 246 246 247 248 248 248 245 241 240 245 250 254 258 263 268 270 268 267 268
225 223 221 219 218 220 222 220 218 216 214 214 216 215 217 220 218 216 214 216 215 213 217 217 213 215 215 215 218 219 218 218 222 219 216 216 217 216 215 215 215 215 216 218 220 221 222 220 220 223 226 230 231 231 232 230 231 233 235 237 238 239 239 238 237 237 238 240 243 246 247 246 246 246 246 247 247 247 248 251 255 259 263 267 269 268 265 264
225 224 222 219 218 218 220 220 217 215 213 214 216 214 213 216 217 215 213 214 214 210 215 217 212 215 218 219 221 221 219 216 218 220 213 215 217 215 213 213 214 215 215 217 219 219 220 219 219 222 224 226 229 232 235 232 230 233 235 239 241 241 240 238 239 239 239 242 244 247 251 246 242 246 249 251 253 253 253 253 255 258 260 264 267 267 264 263
225 223 222 220 218 218 218 219 217 213 213 213 214 213 209 211 213 213 211 212 212 208 212 217 213 214 218 221 223 223 222 218 216 220 218 213 214 214 213 212 213 215 216 216 217 218 219 219 219 222 225 226 226 229 234 234 230 231 235 239 242 245 244 238 238 240 240 244 246 248 256 250 241 246 252 253 254 255 256 255 256 258 259 262 265 266 265 262
224 223 221 219 218 218 217 218 217 212 212 213 212 211 207 207 210 210 209 211 212 208 210 216 214 213 217 221 223 224 225 222 218 220 223 219 209 209 211 211 212 213 215 215 214 216 218 218 219 222 226 227 228 228 231 233 230 231 234 238 240 243 246 241 237 240 241 244 248 251 258 254 245 246 252 254 255 256 257 258 259 260 261 262 264 266 265 262
222 221 220 218 217 217 217 216 216 211 212 213 212 213 208 206 210 209 208 210 211 210 210 213 214 214 217 220 223 225 226 225 221 220 224 225 218 213 209 207 210 213 213 215 214 214 215 217 219 223 227 228 228 227 227 229 230 230 231 235 238 239 244 244 241 241 242 246 249 251 258 256 251 252 253 255 257 257 259 261 262 262 262 264 265 266 266 263
221 220 219 218 216 216 217 216 215 210 210 212 212 214 209 206 208 207 207 209 209 211 211 211 214 215 215 219 221 224 227 225 222 221 224 225 224 229 224 208 205 210 212 213 214 215 215 217 218 222 227 227 226 224 224 226 229 229 229 232 236 237 240 244 245 244 243 247 251 252 257 256 256 259 259 258 259 258 261 263 264 264 264 264 263 264 264 263
219 219 217 217 214 214 216 216 214 210 209 211 211 210 207 206 207 204 205 207 207 211 210 209 213 213 213 217 218 221 225 223 221 220 223 225 225 228 232 220 205 205 208 208 211 213 213 214 216 219 223 224 225 222 219 220 223 225 226 229 234 238 239 242 245 247 246 248 252 255 258 256 256 261 264 264 266 264 263 263 264 263 261 261 260 261 262 262
218 217 215 214 213 212 214 215 214 211 207 208 209 206 204 205 203 203 204 203 203 206 206 208 211 208 207 211 213 217 221 220 219 218 218 222 223 223 228 229 215 202 200 203 207 208 208 212 214 217 220 220 221 220 217 219 223 222 223 225 230 237 239 240 242 246 247 249 252 255 260 258 254 258 263 267 271 271 268 265 261 256 255 256 258 261 262 261
216 215 213 212 211 210 212 213 213 211 206 206 207 203 201 202 199 201 203 200 200 201 202 207 208 205 203 205 208 214 218 219 218 215 213 215 219 221 223 226 221 209 197 198 201 203 206 209 209 212 218 219 221 222 221 224 228 227 228 230 233 237 240 242 244 246 249 252 254 255 261 262 257 257 260 263 268 269 266 263 257 252 252 255 257 260 262 262
215 213 211 210 209 209 210 210 211 211 207 204 202 199 199 197 192 196 199 199 203 201 200 205 208 207 208 206 205 207 209 212 213 211 209 211 215 217 218 220 221 221 221 213 202 201 204 205 208 214 219 221 224 225 224 226 230 231 234 237 238 240 243 247 248 248 250 253 255 257 261 263 260 258 259 259 262 263 262 261 255 251 253 255 256 258 261 263
214 211 209 208 208 207 208 210 211 212 211 205 199 197 198 196 192 192 193 195 203 203 200 205 208 209 211 210 208 203 198 198 205 206 203 204 208 211 213 216 220 224 229 230 227 214 205 206 213 218 220 221 223 223 223 225 227 230 233 237 241 244 247 250 250 250 252 255 258 260 264 264 260 259 260 260 261 261 260 258 253 250 253 255 255 257 259 263
213 209 207 206 205 205 207 209 211 212 213 207 201 199 199 200 198 196 192 192 198 201 202 204 207 208 209 211 210 208 204 197 196 202 201 200 203 206 209 213 218 224 229 231 233 227 212 210 213 216 217 219 222 222 223 225 227 229 230 233 237 239 243 244 244 247 251 259 265 268 268 269 264 261 260 260 261 261 260 259 254 253 254 254 254 256 260 262
211 207 204 203 203 204 206 208 211 213 213 208 202 199 200 201 199 198 197 193 193 197 202 205 205 206 207 210 211 209 211 208 199 201 202 201 204 207 210 212 214 220 224 228 230 226 221 215 211 213 215 216 219 221 223 225 228 229 229 232 235 235 235 236 237 243 253 264 273 277 277 273 265 260 259 260 262 263 260 260 257 255 255 253 252 255 258 259
209 204 201 200 201 202 204 207 211 214 212 205 200 198 200 201 197 197 198 195 195 196 201 205 205 205 206 209 212 210 213 215 211 210 208 205 205 208 213 216 214 215 221 227 229 228 230 225 210 211 216 216 219 222 224 227 229 231 232 232 235 239 240 244 250 257 264 271 274 283 288 277 266 261 261 261 264 264 261 260 258 256 257 255 254 253 254 257
206 201 199 199 199 201 202 205 210 214 208 200 198 198 200 200 197 197 197 194 196 197 199 204 205 205 206 208 211 211 211 214 215 215 214 209 207 208 211 213 215 216 221 225 227 230 233 231 221 214 212 212 217 222 225 226 228 232 234 233 235 240 245 249 253 260 268 270 272 283 293 280 272 267 264 263 263 264 263 261 260 259 260 260 258 255 252 254
204 198 197 198 199 200 201 201 207 211 204 197 196 197 199 198 193 194 195 191 192 196 198 203 204 204 206 210 213 212 210 212 210 209 210 208 206 209 208 206 209 217 221 221 222 231 234 233 232 230 228 225 223 226 226 222 221 227 233 232 233 238 243 247 249 253 262 265 271 278 277 278 279 272 266 266 265 265 265 262 260 260 262 264 264 261 254 251
202 197 195 197 198 199 198 199 204 205 200 196 193 193 196 193 189 189 188 181 190 198 197 197 201 203 205 210 214 210 208 211 207 204 205 203 200 204 207 205 206 212 215 207 208 228 234 232 234 236 237 240 240 238 232 222 219 227 234 233 232 236 238 242 246 246 250 257 263 266 265 275 278 272 267 267 266 266 267 265 263 262 263 266 266 265 259 252
200 196 194 196 198 198 197 199 203 202 198 195 191 191 190 184 182 184 181 156 179 194 195 194 195 200 203 206 209 206 207 209 205 203 204 203 203 205 208 213 216 217 214 204 207 227 235 232 237 238 236 240 240 239 236 225 221 228 235 237 236 237 238 240 242 243 249 258 260 256 256 264 271 268 268 269 267 266 267 267 267 266 265 267 269 270 265 255
198 196 195 196 196 197 199 201 204 202 197 193 189 187 184 179 178 178 178 172 172 183 192 191 190 195 199 200 200 201 205 207 204 202 202 203 206 210 211 213 219 220 214 213 220 228 234 236 240 240 237 239 241 241 240 233 225 226 231 237 237 236 239 239 240 245 247 249 253 252 247 246 268 268 267 268 267 267 270 272 272 269 264 263 270 276 270 258
196 194 195 195 193 195 199 201 205 202 194 190 187 184 182 179 175 171 172 186 175 175 184 186 187 192 195 195 194 195 197 200 200 198 197 198 200 207 210 208 213 217 212 214 223 226 230 224 208 222 237 241 243 243 241 238 231 227 226 230 233 234 237 240 240 240 237 238 247 250 245 239 269 274 268 268 267 268 273 275 276 276 269 260 265 275 270 257
194 193 194 194 192 194 196 197 201 199 192 188 184 179 178 175 172 168 161 178 174 170 177 182 186 189 192 193 191 189 189 192 194 193 192 193 195 199 201 200 202 207 209 208 211 219 223 212 203 218 232 233 230 231 236 237 233 231 225 221 222 219 224 230 229 224 214 240 247 251 250 238 245 266 268 271 271 271 274 276 278 280 279 268 263 269 266 255
191 191 193 194 193 194 196 198 198 196 191 186 183 179 173 166 170 173 157 170 173 171 177 181 184 186 189 192 193 192 189 187 190 193 194 191 191 196 196 195 193 190 194 200 202 209 216 215 215 223 226 223 218 216 221 228 231 233 230 220 210 189 201 207 200 210 208 241 251 257 255 232 246 264 268 270 272 274 276 279 280 280 281 278 268 260 257 256
189 190 192 193 192 193 197 200 198 194 188 183 183 181 172 161 171 172 163 168 173 176 180 183 185 187 187 189 194 196 192 189 190 193 197 196 194 196 198 199 197 190 190 197 199 201 207 214 216 217 216 213 210 208 211 217 221 225 225 221 212 188 184 196 178 188 220 245 256 258 248 228 258 268 268 270 273 274 274 275 278 280 283 284 276 264 259 263
186 188 191 192 192 194 197 198 195 190 186 183 181 177 170 162 169 169 169 170 168 177 184 184 183 185 187 189 193 196 195 195 197 196 197 199 199 199 199 203 204 201 200 201 202 202 199 204 214 217 214 209 212 216 220 226 227 226 226 223 219 217 214 197 190 164 200 244 252 239 220 202 248 262 270 277 279 276 275 276 279 281 284 285 281 273 269 271
183 185 190 190 191 195 198 197 192 186 182 181 178 173 168 160 165 172 176 171 166 176 183 183 183 181 184 190 193 195 196 195 199 202 200 200 203 204 203 203 205 205 204 202 203 206 207 211 217 221 219 214 217 218 219 225 227 227 224 219 223 228 228 234 250 207 199 264 246 200 199 233 257 269 275 278 278 277 279 283 284 284 285 283 279 277 277 276
182 184 189 191 190 194 196 192 187 183 181 179 174 172 172 168 172 179 180 176 176 180 176 176 183 179 177 187 190 192 197 197 198 202 203 204 207 209 208 207 206 205 205 204 200 202 208 217 220 219 220 221 221 217 214 215 217 217 211 212 226 232 227 227 250 250 238 290 257 222 230 253 269 276 273 270 274 275 277 283 286 290 289 283 282 290 294 287
180 182 190 195 192 192 194 189 182 180 180 178 174 175 178 176 180 181 179 178 181 181 173 169 179 181 176 180 186 188 192 195 197 198 201 205 209 211 210 211 210 208 209 209 206 208 211 219 223 219 220 222 219 218 220 220 217 212 208 214 225 229 223 222 230 239 214 248 257 238 243 254 263 271 271 274 276 274 275 279 286 296 295 286 286 299 306 299
178 184 191 195 192 191 189 183 180 178 177 178 178 180 180 180 183 182 180 181 182 182 177 170 176 183 180 180 184 187 188 189 192 194 196 201 208 211 209 209 210 209 210 210 209 215 217 220 226 222 223 223 217 214 217 219 217 215 217 220 218 216 215 214 211 205 210 213 262 243 243 249 253 261 269 275 273 273 276 279 289 301 299 285 287 296 308 311
180 186 190 191 191 189 181 176 178 179 177 178 180 182 181 179 182 183 182 184 185 184 179 174 176 182 186 188 185 185 189 190 190 193 195 198 204 211 209 208 209 207 209 211 210 213 215 217 222 219 222 222 216 212 214 216 216 215 221 224 220 222 219 210 212 219 221 196 245 251 238 246 256 262 268 272 272 275 278 279 286 297 293 282 287 288 296 311
181 186 188 187 184 179 175 174 177 177 177 179 181 183 183 179 180 183 183 186 188 184 181 182 183 183 188 192 188 186 189 191 193 194 196 199 203 209 209 208 209 208 208 211 213 215 215 218 220 210 209 213 213 214 217 220 217 214 217 219 221 222 219 219 222 220 221 218 223 254 250 253 260 265 267 270 272 273 273 275 278 284 286 281 284 282 287 301
181 182 180 179 174 169 170 173 175 176 178 179 179 180 182 181 180 181 182 188 192 189 187 189 190 188 188 190 190 189 189 191 196 196 197 201 203 207 210 209 211 211 208 208 212 216 216 219 222 208 196 206 217 223 226 227 223 221 220 219 221 219 209 211 226 217 220 225 223 220 256 259 262 266 266 268 272 272 272 275 276 278 280 281 284 286 290 297
180 178 172 171 169 167 169 172 174 177 176 177 179 178 180 180 179 181 182 187 193 193 190 192 194 192 190 191 193 192 190 192 197 201 203 207 209 212 214 213 212 213 212 210 212 216 217 221 224 217 208 214 224 227 229 230 227 226 227 226 226 222 214 214 221 217 217 222 230 236 261 262 262 264 266 269 272 274 276 278 278 277 277 279 281 285 291 296
180 176 170 170 170 169 170 169 172 176 175 176 179 178 177 178 177 181 184 186 192 194 189 192 196 194 194 197 196 194 193 195 200 205 208 211 215 216 215 215 214 214 215 215 215 216 218 222 224 226 228 229 229 230 232 234 229 226 229 229 228 226 225 227 230 231 223 217 225 230 248 259 263 264 264 268 273 275 277 279 280 281 281 281 282 285 292 297
177 170 166 168 171 173 173 171 172 175 177 179 180 178 178 179 180 183 186 188 192 193 190 192 196 197 199 202 203 201 198 196 201 208 210 214 218 217 216 218 217 216 217 219 220 218 216 218 219 221 231 233 232 235 236 236 235 234 236 235 232 232 232 232 233 235 234 224 224 220 226 253 262 267 266 268 272 274 277 280 282 284 287 290 289 288 292 297
171 162 161 166 171 175 177 179 179 179 180 181 181 182 182 182 185 187 188 190 192 193 193 193 194 197 199 200 203 206 204 203 206 210 214 219 222 223 222 222 222 222 222 223 224 223 220 219 219 216 207 209 218 226 232 234 232 233 237 237 235 233 231 231 231 232 236 233 227 223 232 250 262 269 269 270 273 274 277 281 282 285 288 291 291 290 292 296
167 158 160 165 171 176 180 182 182 181 180 180 180 184 185 184 187 190 191 193 195 196 197 196 195 194 194 195 196 200 205 209 212 216 220 224 226 228 228 227 229 230 229 224 222 223 224 225 227 227 226 228 231 235 238 238 232 230 235 238 237 236 233 233 231 229 233 236 232 231 236 248 261 268 269 269 272 274 276 278 280 283 285 287 289 289 291 292
166 161 163 165 168 176 181 183 183 182 181 180 180 184 188 188 188 190 194 198 200 200 199 201 204 200 197 198 198 199 203 207 212 217 220 222 225 229 230 230 232 233 232 225 218 219 222 225 230 232 235 240 243 246 247 245 240 238 240 241 241 241 238 234 233 234 235 235 237 240 239 244 257 265 268 270 273 276 278 279 280 281 283 285 286 287 288 288
165 164 167 169 169 176 183 184 184 184 183 182 182 184 189 192 191 191 195 199 204 206 204 205 211 212 211 209 205 202 199 200 210 216 217 219 221 224 227 228 228 230 228 223 221 222 222 226 231 234 238 243 246 249 249 247 248 248 245 246 247 247 245 241 241 242 240 237 242 246 244 245 254 263 268 270 274 277 279 280 280 280 282 284 285 286 285 284
167 167 169 171 171 178 185 186 184 185 185 185 186 188 191 194 196 196 197 198 202 207 209 211 214 215 216 216 214 211 206 206 212 214 214 214 214 216 221 223 224 223 220 221 225 225 223 229 236 236 240 246 248 249 250 249 251 251 249 249 248 249 250 251 253 253 250 247 249 251 251 250 254 262 265 267 271 275 276 278 279 278 280 282 283 284 283 283
172 171 171 171 172 178 184 185 183 184 186 189 192 195 197 197 199 201 203 203 204 206 209 214 217 217 216 218 219 220 220 222 224 222 221 221 223 225 225 224 226 222 217 220 225 226 228 234 239 239 242 249 251 252 253 251 251 253 253 252 251 251 251 251 253 255 253 251 251 252 252 253 255 259 261 262 268 272 272 273 276 277 278 280 281 282 284 286
176 174 174 174 173 177 182 184 185 186 188 192 196 199 201 203 205 205 206 209 211 212 211 212 214 215 216 219 223 225 227 231 234 236 238 239 241 241 238 236 237 234 230 230 230 231 234 238 242 242 243 252 255 255 256 256 256 255 254 254 253 251 251 250 249 250 250 251 252 249 249 254 258 260 261 263 267 268 267 268 272 276 277 278 281 283 285 288
172 172 174 175 175 177 181 184 186 188 192 197 199 200 202 205 207 208 208 210 213 216 216 216 215 215 217 222 226 228 228 232 237 241 244 247 248 249 247 245 245 242 240 241 240 240 241 243 246 242 240 253 259 259 260 262 259 253 253 256 255 253 253 252 251 250 250 250 250 249 250 258 263 264 264 263 261 260 261 265 271 275 277 279 280 280 285 290
Height
3028 3032 3035 3039 3042 3046 3050 3053 3056 3060 3064 3068 3071 3075 3078 3082 3087 3091 3094 3098 3101 3104 3109 3114 3119 3122 3124 3127 3129 3132 3135 3137 3138 3140 3142 3148 3154 3156 3157 3158 3160 3162 3165 3167 3169 3172 3174 3175 3177 3178 3179 3180 3181 3182 3183 3184 3185 3186 3187 3188 3189 3190 3191 3191 3193 3194 3195 3196 3197 3198 3199 3199 3200 3201 3201 3201 3202 3202 3202 3202 3202 3202 3202 3202 3203 3203 3203 3203
3022 3027 3031 3034 3038 3042 3046 3049 3052 3056 3060 3064 3067 3071 3075 3079 3084 3088 3091 3095 3099 3102 3105 3110 3115 3119 3122 3125 3127 3130 3132 3134 3135 3136 3140 3147 3150 3152 3153 3156 3158 3160 3162 3165 3168 3170 3172 3174 3175 3177 3178 3179 3180 3181 3182 3183 3184 3185 3185 3186 3187 3188 3190 3191 3192 3193 3194 3195 3196 3197 3198 3198 3199 3200 3200 3200 3201 3201 3201 3201 3201 3201 3201 3201 3202 3202 3202 3202
3017 3021 3026 3030 3033 3037 3041 3045 3048 3052 3056 3060 3064 3067 3072 3076 3080 3085 3088 3091 3095 3099 3102 3107 3112 3116 3120 3122 3124 3127 3129 3130 3129 3131 3139 3144 3146 3149 3151 3153 3155 3157 3160 3163 3166 3168 3170 3172 3173 3174 3176 3177 3178 3180 3180 3181 3182 3183 3184 3184 3185 3188 3189 3190 3191 3191 3193 3194 3195 3196 3197 3197 3198 3198 3199 3199 3200 3200 3201 3201 3201 3201 3200 3200 3201 3201 3201 3202
3011 3016 3020 3025 3029 3033 3036 3040 3044 3049 3053 3056 3060 3064 3068 3072 3076 3081 3085 3088 3092 3096 3100 3104 3109 3113 3117 3119 3121 3123 3126 3126 3123 3129 3139 3141 3143 3146 3148 3150 3153 3154 3157 3160 3163 3165 3167 3169 3170 3172 3173 3175 3176 3178 3179 3180 3181 3181 3182 3183 3184 3187 3188 3189 3189 3190 3191 3192 3193 3194 3195 3195 3196 3197 3197 3198 3198 3199 3200 3200 3200 3200 3200 3200 3200 3200 3201 3201
3005 3010 3015 3020 3024 3028 3031 3035 3040 3045 3049 3053 3056 3060 3065 3069 3073 3078 3083 3086 3089 3093 3097 3101 3105 3110 3114 3116 3118 3119 3122 3122 3119 3128 3137 3137 3140 3143 3145 3148 3150 3152 3154 3157 3159 3161 3164 3166 3168 3170 3171 3173 3174 3176 3177 3178 3179 3180 3181 3182 3183 3185 3186 3187 3188 3188 3189 3190 3192 3193 3193 3194 3194 3195 3196 3196 3197 3198 3199 3198 3199 3199 3200 3200 3200 3200 3200 3200
2999 3004 3010 3015 3019 3023 3027 3031 3036 3040 3045 3049 3053 3057 3061 3065 3070 3074 3079 3083 3086 3089 3093 3098 3101 3106 3111 3114 3114 3113 3116 3118 3116 3125 3132 3132 3136 3139 3142 3145 3147 3149 3151 3154 3156 3158 3161 3163 3165 3167 3169 3171 3173 3174 3175 3177 3177 3178 3179 3180 3181 3183 3184 3185 3186 3187 3188 3189 3190 3191 3191 3192 3192 3193 3194 3194 3196 3197 3197 3197 3197 3198 3199 3199 3200 3200 3199 3199
2993 2998 3004 3009 3014 3018 3022 3027 3032 3036 3041 3045 3049 3053 3057 3061 3066 3070 3075 3080 3083 3086 3090 3095 3099 3103 3107 3110 3111 3110 3112 3114 3114 3121 3127 3129 3133 3136 3139 3141 3144 3146 3149 3151 3153 3156 3158 3160 3163 3165 3168 3169 3171 3173 3174 3175 3176 3177 3178 3179 3180 3181 3182 3183 3184 3185 3185 3186 3188 3188 3189 3190 3190 3191 3191 3192 3195 3196 3195 3195 3196 3196 3197 3198 3198 3199 3199 3198
2987 2993 2998 3003 3008 3013 3018 3022 3027 3032 3037 3041 3045 3049 3053 3057 3062 3066 3071 3076 3080 3083 3086 3091 3095 3099 3103 3105 3107 3107 3108 3112 3113 3118 3123 3126 3129 3132 3135 3137 3140 3143 3146 3149 3152 3155 3156 3158 3161 3163 3165 3167 3169 3171 3172 3173 3174 3174 3176 3177 3178 3179 3180 3181 3182 3183 3183 3184 3185 3186 3187 3188 3188 3188 3188 3190 3193 3193 3193 3194 3195 3195 3195 3196 3197 3197 3197 3198
2981 2987 2993 2998 3003 3008 3013 3018 3023 3028 3033 3038 3042 3046 3049 3053 3058 3062 3067 3072 3077 3080 3083 3088 3092 3097 3099 3102 3104 3104 3107 3111 3113 3116 3120 3123 3125 3128 3132 3134 3138 3141 3145 3147 3150 3152 3154 3156 3159 3161 3164 3165 3167 3169 3170 3170 3171 3172 3175 3176 3176 3177 3178 3179 3180 3181 3181 3182 3183 3184 3185 3185 3186 3186 3186 3188 3191 3191 3191 3192 3193 3193 3194 3194 3195 3195 3196 3196
2975 2981 2987 2993 2998 3004 3009 3014 3019 3024 3029 3034 3038 3042 3046 3050 3054 3058 3063 3069 3073 3077 3080 3084 3089 3093 3095 3098 3099 3099 3105 3111 3110 3113 3116 3119 3122 3124 3128 3132 3135 3139 3142 3145 3147 3149 3151 3154 3157 3160 3162 3163 3164 3165 3166 3167 3169 3171 3173 3173 3174 3175 3176 3177 3178 3179 3179 3180 3181 3181 3182 3183 3184 3183 3182 3185 3188 3189 3190 3190 3191 3191 3192 3192 3193 3193 3194 3194
2969 2975 2981 2987 2993 2999 3004 3010 3015 3021 3026 3031 3035 3039 3042 3047 3051 3054 3060 3065 3070 3074 3077 3082 3087 3090 3091 3094 3094 3095 3103 3108 3108 3110 3112 3115 3118 3120 3124 3128 3132 3136 3139 3143 3145 3148 3150 3153 3155 3157 3159 3160 3162 3163 3164 3166 3167 3169 3171 3171 3172 3173 3174 3175 3176 3177 3177 3178 3178 3179 3180 3180 3180 3178 3178 3183 3186 3187 3188 3188 3189 3189 3190 3190 3190 3191 3191 3192
2964 2969 2975 2982 2988 2994 3000 3006 3011 3016 3021 3027 3031 3036 3039 3043 3047 3051 3056 3061 3067 3071 3074 3079 3084 3087 3089 3090 3090 3093 3100 3105 3107 3108 3109 3111 3114 3117 3121 3126 3129 3133 3137 3141 3143 3146 3148 3150 3153 3155 3156 3157 3159 3161 3162 3163 3166 3167 3168 3169 3169 3170 3171 3172 3174 3174 3176 3176 3176 3178 3176 3175 3176 3175 3177 3182 3184 3185 3185 3185 3186 3186 3187 3188 3188 3188 3188 3189
2958 2964 2970 2976 2983 2989 2996 3002 3007 3012 3017 3023 3027 3032 3036 3040 3044 3048 3053 3058 3063 3068 3072 3075 3080 3084 3085 3085 3088 3091 3095 3101 3105 3106 3107 3110 3112 3115 3120 3123 3127 3131 3135 3138 3141 3144 3146 3148 3151 3152 3153 3155 3157 3158 3159 3161 3163 3164 3165 3166 3166 3167 3167 3169 3171 3172 3174 3174 3175 3176 3173 3170 3173 3175 3177 3181 3182 3182 3182 3182 3184 3184 3185 3185 3185 3185 3185 3186
2954 2959 2964 2971 2978 2984 2992 2998 3003 3009 3014 3019 3024 3029 3032 3037 3041 3044 3049 3055 3060 3065 3069 3072 3077 3080 3080 3081 3085 3088 3090 3096 3101 3103 3105 3108 3111 3114 3117 3121 3125 3128 3132 3135 3138 3140 3143 3146 3148 3149 3150 3152 3154 3156 3157 3158 3160 3162 3163 3163 3163 3163 3163 3166 3169 3170 3172 3173 3173 3174 3170 3167 3171 3175 3176 3178 3179 3179 3179 3180 3181 3181 3182 3182 3182 3182 3182 3183
2948 2954 2959 2965 2973 2980 2987 2994 2999 3005 3010 3015 3021 3025 3030 3034 3038 3042 3046 3051 3057 3062 3066 3070 3074 3075 3076 3078 3081 3084 3087 3091 3096 3101 3103 3106 3110 3112 3115 3119 3122 3126 3128 3131 3134 3137 3139 3142 3144 3146 3147 3148 3151 3153 3154 3156 3158 3159 3159 3158 3159 3160 3160 3163 3167 3168 3170 3171 3171 3171 3168 3165 3168 3172 3174 3175 3176 3176 3176 3177 3178 3179 3179 3179 3179 3179 3179 3180
2943 2949 2954 2960 2968 2975 2982 2989 2995 3001 3006 3012 3017 3023 3028 3031 3035 3039 3043 3048 3055 3059 3063 3067 3070 3072 3073 3074 3077 3080 3082 3086 3093 3098 3100 3103 3108 3111 3114 3117 3120 3123 3125 3128 3131 3134 3136 3138 3140 3142 3143 3145 3147 3149 3152 3154 3154 3154 3155 3155 3155 3157 3159 3162 3164 3166 3168 3169 3168 3167 3166 3165 3166 3168 3170 3172 3173 3174 3173 3174 3175 3175 3176 3176 3176 3176 3176 3176
2939 2944 2950 2956 2963 2971 2978 2985 2991 2997 3003 3008 3014 3020 3025 3028 3031 3037 3041 3045 3050 3055 3060 3064 3068 3071 3070 3071 3074 3075 3076 3082 3089 3094 3097 3101 3105 3109 3111 3114 3116 3118 3121 3124 3127 3130 3132 3133 3136 3138 3140 3142 3144 3147 3149 3149 3148 3149 3151 3152 3153 3155 3158 3160 3162 3164 3167 3166 3165 3165 3163 3163 3164 3165 3167 3169 3170 3171 3171 3171 3172 3172 3172 3172 3172 3172 3173 3173
2934 2939 2945 2951 2958 2967 2974 2981 2987 2993 2999 3005 3010 3016 3021 3024 3028 3033 3037 3040 3045 3052 3057 3060 3064 3065 3064 3065 3068 3070 3075 3082 3087 3091 3094 3097 3103 3106 3109 3112 3114 3115 3118 3121 3123 3126 3128 3130 3133 3135 3136 3138 3140 3141 3142 3141 3143 3146 3148 3150 3152 3154 3156 3158 3160 3163 3164 3163 3163 3162 3159 3160 3162 3163 3165 3166 3167 3167 3167 3168 3168 3169 3169 3169 3169 3169 3170 3170
2930 2935 2940 2947 2954 2962 2970 2977 2983 2989 2994 3001 3007 3012 3016 3020 3024 3027 3031 3034 3038 3043 3046 3049 3054 3056 3059 3063 3065 3069 3076 3081 3084 3087 3090 3094 3098 3102 3106 3109 3112 3114 3115 3117 3120 3122 3124 3126 3129 3130 3130 3132 3133 3136 3138 3139 3142 3145 3147 3149 3151 3152 3154 3156 3159 3161 3162 3161 3159 3158 3157 3158 3159 3160 3162 3164 3163 3163 3163 3164 3164 3165 3165 3166 3167 3167 3167 3167
2925 2931 2936 2943 2950 2958 2966 2973 2980 2985 2989 2994 2999 3003 3007 3010 3015 3019 3024 3030 3033 3036 3040 3045 3051 3055 3059 3063 3066 3069 3074 3076 3078 3082 3086 3090 3094 3098 3101 3104 3108 3111 3111 3113 3117 3119 3121 3122 3122 3123 3125 3129 3132 3136 3138 3140 3142 3144 3146 3148 3149 3150 3152 3154 3157 3158 3159 3157 3155 3156 3155 3155 3155 3155 3158 3160 3159 3158 3159 3160 3160 3161 3162 3163 3164 3164 3165 3165
2921 2927 2932 2939 2946 2954 2962 2969 2975 2980 2983 2986 2990 2994 2996 3000 3003 3008 3016 3026 3032 3036 3041 3046 3050 3054 3058 3061 3064 3067 3069 3072 3075 3079 3082 3086 3089 3093 3096 3099 3103 3106 3108 3111 3114 3117 3119 3119 3119 3122 3126 3129 3132 3135 3137 3139 3141 3143 3145 3146 3147 3149 3150 3152 3154 3155 3156 3154 3152 3154 3152 3151 3152 3152 3154 3155 3154 3155 3156 3157 3157 3158 3159 3160 3160 3161 3162 3163
2917 2922 2928 2935 2942 2950 2958 2965 2971 2975 2978 2981 2985 2989 2993 2998 3003 3008 3013 3018 3026 3034 3040 3043 3047 3051 3055 3060 3063 3065 3067 3069 3073 3077 3079 3082 3086 3088 3091 3095 3099 3102 3105 3108 3112 3116 3117 3116 3118 3123 3125 3128 3131 3133 3136 3137 3139 3142 3143 3145 3146 3147 3148 3151 3152 3153 3154 3152 3150 3151 3149 3148 3149 3148 3148 3150 3149 3152 3154 3154 3155 3155 3155 3156 3157 3158 3159 3160
2914 2919 2925 2931 2938 2947 2954 2961 2967 2970 2972 2975 2980 2986 2992 2998 3006 3013 3016 3018 3022 3028 3033 3038 3042 3048 3053 3056 3059 3063 3065 3067 3071 3073 3076 3080 3083 3086 3088 3091 3095 3099 3102 3104 3108 3113 3114 3115 3117 3121 3123 3125 3128 3131 3134 3136 3137 3139 3141 3142 3143 3145 3147 3148 3150 3151 3152 3150 3149 3149 3146 3142 3144 3144 3142 3145 3146 3148 3151 3151 3152 3152 3152 3153 3155 3155 3155 3156
2910 2915 2921 2928 2935 2943 2950 2958 2962 2963 2968 2973 2978 2985 2990 2996 3004 3011 3016 3020 3022 3025 3029 3034 3039 3044 3049 3052 3056 3060 3063 3066 3070 3072 3075 3078 3081 3084 3087 3089 3093 3096 3098 3102 3106 3109 3112 3115 3118 3119 3121 3123 3126 3129 3132 3134 3135 3137 3138 3140 3141 3143 3145 3147 3149 3150 3150 3149 3147 3147 3142 3135 3137 3139 3137 3142 3144 3144 3147 3148 3148 3149 3150 3151 3151 3152 3152 3152
2906 2912 2918 2925 2932 2939 2948 2955 2955 2957 2966 2972 2975 2981 2987 2994 3002 3010 3015 3019 3021 3025 3028 3031 3036 3041 3046 3050 3054 3057 3061 3064 3067 3070 3073 3076 3079 3082 3084 3087 3090 3093 3096 3100 3104 3106 3109 3114 3117 3117 3119 3122 3124 3126 3128 3131 3133 3134 3135 3137 3140 3142 3144 3146 3148 3148 3148 3147 3145 3147 3142 3129 3130 3134 3133 3137 3139 3138 3142 3143 3144 3146 3147 3148 3147 3148 3150 3150
2903 2908 2915 2921 2928 2936 2944 2947 2948 2955 2963 2966 2971 2979 2985 2992 3001 3010 3016 3019 3019 3021 3024 3028 3034 3039 3043 3048 3052 3057 3060 3061 3065 3068 3071 3074 3077 3079 3082 3085 3087 3091 3094 3099 3102 3102 3104 3109 3113 3115 3117 3120 3122 3124 3126 3128 3131 3131 3131 3134 3139 3140 3142 3144 3146 3147 3147 3146 3144 3147 3144 3130 3123 3127 3129 3132 3133 3133 3137 3138 3140 3143 3144 3144 3145 3145 3146 3147
2900 2905 2911 2918 2924 2931 2935 2939 2945 2952 2955 2959 2968 2977 2984 2991 3001 3008 3013 3017 3017 3017 3021 3026 3031 3036 3041 3045 3049 3054 3056 3058 3064 3067 3068 3072 3075 3077 3080 3082 3085 3089 3092 3096 3099 3096 3097 3104 3108 3111 3115 3117 3119 3121 3124 3126 3128 3128 3128 3133 3137 3138 3141 3142 3144 3145 3144 3144 3143 3143 3144 3134 3120 3117 3123 3127 3128 3128 3131 3134 3136 3139 3141 3141 3142 3141 3142 3143
2897 2902 2908 2914 2921 2927 2932 2936 2942 2948 2952 2958 2967 2975 2982 2990 2998 3003 3007 3012 3012 3013 3018 3022 3028 3035 3039 3044 3048 3050 3053 3057 3061 3063 3066 3071 3073 3075 3078 3081 3084 3086 3088 3092 3093 3092 3094 3100 3104 3108 3112 3114 3115 3119 3122 3124 3125 3126 3127 3131 3135 3137 3138 3140 3141 3143 3142 3143 3140 3138 3142 3135 3116 3111 3119 3122 3122 3123 3125 3130 3133 3135 3138 3138 3138 3138 3139 3140
2893 2899 2905 2912 2920 2926 2931 2936 2940 2945 2951 2958 2964 2972 2980 2987 2994 2998 3002 3006 3006 3008 3014 3020 3027 3031 3035 3041 3045 3048 3053 3056 3057 3060 3065 3068 3070 3073 3076 3080 3083 3085 3087 3090 3090 3090 3093 3098 3102 3106 3108 3110 3113 3117 3120 3122 3123 3124 3126 3129 3132 3134 3135 3137 3138 3139 3141 3139 3134 3132 3137 3133 3113 3106 3115 3118 3116 3119 3121 3126 3129 3131 3134 3135 3135 3136 3136 3136
2890 2896 2902 2910 2917 2922 2927 2934 2939 2941 2947 2955 2963 2970 2977 2983 2988 2993 2997 2999 3000 3005 3012 3017 3022 3025 3030 3038 3042 3046 3051 3054 3055 3059 3063 3065 3068 3072 3075 3079 3082 3083 3086 3089 3090 3090 3093 3097 3100 3101 3104 3107 3111 3114 3117 3120 3122 3123 3125 3127 3130 3131 3132 3134 3134 3136 3138 3133 3127 3126 3131 3134 3118 3103 3109 3114 3113 3117 3119 3121 3125 3128 3131 3132 3133 3133 3132 3133
2888 2894 2900 2907 2912 2916 2923 2929 2933 2937 2945 2952 2960 2967 2973 2979 2983 2987 2991 2994 2997 3004 3009 3013 3019 3023 3027 3033 3038 3043 3048 3051 3054 3057 3059 3062 3066 3068 3072 3075 3078 3081 3084 3086 3087 3089 3092 3095 3097 3097 3100 3104 3108 3111 3113 3116 3119 3121 3123 3124 3126 3128 3129 3131 3131 3132 3132 3125 3122 3123 3127 3133 3122 3102 3104 3110 3111 3115 3117 3118 3122 3125 3127 3128 3129 3130 3129 3130
2886 2892 2899 2905 2910 2916 2922 2925 2928 2936 2945 2950 2956 2962 2967 2974 2980 2983 2986 2990 2995 3000 3004 3009 3016 3021 3026 3032 3037 3041 3045 3048 3051 3054 3057 3060 3062 3064 3067 3069 3072 3076 3079 3081 3085 3087 3090 3092 3094 3096 3099 3101 3104 3107 3110 3113 3115 3117 3119 3121 3123 3124 3124 3126 3126 3125 3125 3120 3119 3122 3124 3127 3118 3103 3103 3107 3108 3113 3115 3115 3118 3120 3122 3124 3125 3127 3127 3127
2885 2892 2898 2905 2911 2916 2919 2923 2928 2934 2943 2948 2954 2959 2963 2968 2974 2978 2981 2986 2991 2995 3000 3006 3013 3018 3023 3028 3034 3038 3042 3046 3049 3052 3056 3059 3061 3063 3066 3068 3070 3072 3074 3079 3083 3086 3089 3091 3093 3095 3096 3098 3100 3101 3104 3106 3108 3110 3112 3116 3118 3119 3120 3120 3120 3121 3121 3119 3117 3119 3121 3123 3115 3102 3101 3103 3105 3110 3112 3113 3115 3116 3118 3120 3121 3123 3123 3124
2884 2892 2898 2904 2910 2913 2916 2921 2927 2932 2940 2946 2950 2956 2961 2965 2969 2975 2979 2983 2989 2993 2998 3003 3009 3017 3022 3025 3029 3033 3039 3044 3047 3051 3054 3057 3059 3061 3063 3066 3070 3072 3074 3078 3081 3083 3086 3087 3088 3090 3091 3093 3095 3097 3099 3101 3104 3105 3108 3112 3115 3115 3116 3116 3116 3117 3117 3116 3115 3116 3118 3118 3110 3099 3099 3102 3102 3105 3107 3110 3112 3113 3115 3116 3117 3118 3119 3120
2885 2892 2897 2902 2907 2910 2914 2920 2926 2931 2938 2943 2948 2952 2956 2961 2966 2971 2974 2979 2985 2990 2996 3002 3007 3013 3020 3025 3028 3031 3035 3040 3045 3049 3051 3054 3056 3057 3060 3063 3066 3070 3073 3075 3078 3081 3083 3083 3084 3086 3088 3090 3091 3094 3097 3100 3102 3103 3107 3111 3110 3110 3113 3114 3113 3113 3114 3114 3113 3113 3112 3109 3103 3097 3099 3102 3098 3100 3104 3107 3110 3111 3112 3112 3112 3113 3114 3115
2885 2891 2895 2898 2902 2907 2912 2919 2925 2931 2936 2941 2946 2950 2954 2958 2961 2965 2969 2975 2979 2982 2988 2999 3005 3009 3016 3022 3026 3030 3034 3038 3042 3047 3050 3053 3055 3056 3058 3061 3063 3067 3069 3072 3075 3077 3080 3080 3081 3084 3085 3087 3089 3092 3094 3097 3099 3100 3103 3104 3103 3106 3112 3114 3112 3112 3114 3114 3110 3108 3106 3105 3101 3094 3094 3098 3096 3097 3102 3104 3106 3108 3108 3108 3108 3109 3111 3111
2882 2887 2892 2896 2900 2906 2912 2919 2925 2931 2937 2942 2945 2949 2955 2958 2960 2963 2968 2973 2977 2980 2983 2991 2997 3002 3009 3016 3022 3026 3031 3036 3041 3044 3047 3051 3052 3053 3056 3059 3062 3064 3067 3070 3072 3073 3076 3077 3078 3081 3082 3084 3088 3092 3093 3094 3096 3097 3098 3099 3102 3107 3110 3111 3112 3111 3113 3112 3106 3103 3101 3102 3102 3092 3088 3094 3095 3095 3099 3101 3103 3104 3104 3105 3105 3106 3107 3108
2879 2886 2891 2896 2901 2907 2913 2920 2925 2930 2936 2942 2946 2950 2954 2958 2961 2964 2968 2972 2977 2982 2984 2986 2991 2998 3003 3008 3015 3021 3026 3032 3037 3040 3044 3046 3048 3049 3053 3056 3059 3062 3065 3068 3070 3071 3074 3075 3076 3078 3080 3082 3086 3089 3090 3090 3091 3092 3094 3097 3100 3104 3105 3106 3108 3107 3108 3107 3103 3099 3097 3099 3098 3089 3085 3090 3092 3092 3095 3097 3100 3101 3101 3102 3102 3103 3104 3105
2878 2884 2890 2896 2903 2908 2913 2919 2925 2931 2935 2940 2945 2950 2954 2958 2962 2965 2969 2973 2978 2981 2984 2985 2989 2997 3002 3004 3009 3016 3022 3026 3030 3035 3039 3041 3044 3046 3049 3053 3056 3059 3062 3065 3068 3069 3071 3073 3073 3075 3078 3080 3082 3084 3084 3085 3088 3090 3093 3095 3097 3099 3099 3100 3101 3101 3102 3103 3100 3096 3094 3092 3090 3085 3083 3086 3088 3090 3093 3094 3096 3099 3099 3099 3100 3100 3100 3101
2877 2882 2890 2897 2902 2907 2913 2918 2924 2930 2934 2938 2944 2948 2953 2957 2961 2966 2971 2975 2978 2981 2984 2986 2988 2993 2999 3004 3009 3014 3019 3024 3027 3031 3034 3037 3041 3043 3046 3050 3053 3056 3060 3063 3066 3068 3069 3071 3072 3073 3075 3076 3077 3077 3079 3081 3083 3086 3088 3089 3091 3094 3095 3096 3097 3097 3098 3099 3098 3096 3091 3084 3081 3082 3082 3083 3085 3087 3089 3090 3092 3095 3097 3097 3097 3097 3097 3098
2877 2883 2889 2895 2901 2906 2912 2917 2923 2928 2933 2938 2943 2947 2952 2956 2961 2966 2971 2975 2979 2981 2984 2987 2988 2991 2995 3001 3007 3012 3017 3022 3026 3029 3031 3034 3037 3040 3043 3048 3051 3054 3057 3059 3062 3064 3067 3068 3069 3071 3071 3072 3073 3074 3077 3079 3080 3082 3083 3083 3085 3088 3091 3094 3094 3093 3094 3093 3092 3092 3087 3076 3074 3079 3080 3080 3082 3084 3086 3087 3088 3091 3094 3094 3094 3095 3095 3095
2878 2883 2888 2894 2899 2904 2909 2916 2923 2928 2933 2938 2943 2947 2952 2957 2961 2966 2970 2975 2979 2982 2985 2988 2990 2993 2996 3000 3005 3010 3014 3019 3023 3026 3029 3032 3034 3038 3042 3046 3049 3052 3054 3057 3060 3062 3065 3067 3068 3069 3070 3071 3073 3074 3076 3077 3078 3080 3080 3081 3084 3086 3088 3090 3088 3088 3089 3088 3088 3089 3085 3073 3069 3075 3077 3077 3079 3080 3081 3083 3084 3085 3088 3090 3091 3091 3092 3092
2878 2884 2890 2896 2901 2905 2909 2916 2923 2929 2933 2938 2943 2948 2952 2956 2961 2965 2970 2974 2978 2981 2985 2987 2989 2993 2997 3000 3004 3008 3013 3018 3021 3024 3027 3030 3033 3037 3040 3043 3047 3050 3053 3056 3058 3061 3063 3064 3065 3067 3068 3070 3071 3072 3073 3075 3076 3077 3077 3078 3081 3082 3083 3084 3084 3085 3084 3084 3085 3088 3085 3073 3065 3070 3075 3075 3076 3077 3077 3079 3080 3081 3083 3086 3087 3088 3088 3088
2879 2885 2893 2899 2904 2907 2909 2912 2917 2925 2931 2937 2942 2948 2952 2957 2961 2965 2969 2973 2976 2980 2983 2985 2988 2992 2996 3000 3004 3007 3012 3016 3020 3023 3026 3028 3031 3034 3038 3040 3043 3046 3048 3051 3053 3056 3058 3059 3061 3065 3066 3068 3070 3070 3071 3072 3073 3073 3072 3074 3075 3077 3080 3081 3081 3082 3079 3078 3081 3082 3080 3072 3062 3065 3071 3072 3073 3073 3073 3075 3077 3078 3080 3082 3083 3084 3084 3084
2879 2886 2893 2900 2906 2910 2911 2912 2914 2919 2926 2933 2939 2945 2950 2956 2961 2965 2969 2972 2975 2979 2982 2985 2988 2992 2996 3000 3004 3008 3011 3014 3018 3021 3024 3026 3029 3032 3035 3038 3040 3042 3046 3049 3051 3053 3055 3055 3057 3060 3060 3062 3063 3062 3063 3065 3066 3066 3066 3069 3071 3073 3075 3076 3077 3077 3074 3075 3077 3075 3074 3071 3063 3061 3065 3067 3069 3070 3070 3071 3073 3074 3076 3078 3079 3079 3079 3079
2878 2884 2891 2899 2906 2911 2913 2916 2918 2920 2925 2931 2937 2943 2948 2953 2959 2965 2970 2973 2976 2979 2982 2985 2988 2992 2996 2999 3003 3007 3010 3013 3015 3018 3021 3024 3026 3028 3032 3035 3038 3040 3044 3047 3050 3052 3053 3053 3054 3054 3054 3054 3054 3055 3058 3060 3061 3062 3063 3065 3067 3068 3070 3073 3072 3070 3070 3072 3071 3069 3071 3072 3065 3058 3057 3060 3065 3066 3066 3068 3069 3070 3072 3073 3074 3075 3074 3074
2878 2882 2888 2895 2904 2912 2916 2918 2922 2925 2928 2932 2936 2941 2947 2951 2956 2962 2968 2972 2975 2978 2981 2985 2987 2990 2993 2996 2999 3003 3006 3010 3012 3014 3018 3021 3023 3026 3030 3033 3036 3038 3041 3044 3047 3049 3050 3050 3050 3051 3050 3051 3052 3054 3057 3058 3059 3060 3062 3062 3064 3065 3067 3067 3064 3064 3068 3068 3064 3065 3071 3071 3063 3055 3051 3055 3061 3062 3061 3063 3065 3066 3067 3068 3069 3069 3069 3070
2879 2883 2888 2892 2899 2906 2912 2916 2922 2927 2931 2936 2938 2941 2945 2950 2954 2958 2963 2968 2972 2975 2979 2982 2984 2986 2989 2992 2995 2999 3004 3008 3010 3012 3015 3018 3021 3024 3027 3030 3033 3035 3038 3041 3043 3045 3046 3045 3047 3048 3048 3048 3050 3052 3054 3056 3056 3058 3058 3059 3060 3062 3062 3062 3060 3062 3065 3062 3059 3064 3068 3066 3061 3054 3047 3050 3057 3058 3056 3057 3059 3060 3061 3062 3064 3064 3064 3065
2880 2884 2890 2895 2898 2902 2906 2913 2920 2926 2931 2936 2939 2942 2945 2949 2953 2956 2960 2964 2968 2972 2976 2978 2980 2983 2987 2990 2994 2997 3000 3002 3004 3007 3011 3014 3018 3021 3024 3027 3029 3032 3036 3038 3040 3041 3041 3042 3044 3045 3045 3045 3047 3048 3050 3052 3053 3053 3053 3055 3056 3058 3058 3059 3058 3060 3060 3058 3058 3062 3062 3057 3057 3054 3047 3046 3051 3053 3052 3051 3051 3054 3056 3057 3058 3059 3059 3060
2883 2885 2889 2895 2901 2905 2909 2914 2920 2926 2931 2936 2939 2941 2945 2948 2952 2955 2958 2962 2964 2968 2972 2974 2977 2981 2985 2989 2992 2994 2996 2998 3001 3005 3009 3013 3016 3019 3022 3024 3026 3030 3033 3036 3038 3038 3039 3040 3041 3043 3043 3041 3042 3044 3046 3047 3048 3047 3048 3050 3053 3054 3055 3055 3054 3055 3054 3052 3053 3056 3054 3049 3052 3055 3049 3043 3045 3048 3047 3046 3045 3047 3050 3052 3053 3053 3054 3055
2886 2889 2892 2896 2901 2907 2912 2916 2921 2926 2930 2933 2936 2940 2944 2947 2951 2954 2958 2961 2964 2967 2969 2972 2976 2980 2984 2987 2990 2992 2995 3000 3004 3007 3010 3013 3015 3018 3020 3023 3025 3028 3031 3033 3035 3036 3038 3038 3039 3041 3041 3037 3038 3040 3040 3042 3044 3043 3042 3046 3048 3048 3047 3046 3046 3047 3046 3046 3048 3049 3046 3043 3048 3054 3050 3044 3042 3041 3040 3041 3041 3041 3044 3047 3048 3048 3049 3049
2888 2892 2896 2899 2904 2909 2913 2917 2922 2926 2928 2930 2934 2938 2942 2946 2950 2954 2958 2962 2965 2968 2970 2973 2976 2980 2983 2985 2987 2991 2996 3000 3004 3006 3009 3011 3014 3016 3019 3021 3023 3025 3028 3030 3031 3033 3034 3035 3035 3037 3037 3033 3033 3034 3036 3039 3039 3035 3035 3039 3040 3038 3038 3037 3037 3039 3041 3043 3043 3041 3039 3040 3046 3050 3048 3043 3038 3033 3032 3035 3038 3038 3039 3042 3042 3042 3043 3044